CW4047 Weather Reports


Display with metric or nautical units.
time (UTC)temp
F
wind
direction
speed
MPH
gust
MPH
rain 1hr
in
rain 24hr
in
rain mn
in
humidity
%
barometer
mb
20260504191901 73 180 2.0 13.0 0.00 0.00 0.00 40 1010.8
20260504191401 73 188 2.0 13.0 0.00 0.00 0.00 40 1011.0
20260504191138 73 189 2.0 5.0 0.00 0.00 0.00 40 1011.0
20260504190401 72 195 2.0 7.0 0.00 0.00 0.00 41 1011.0
20260504185901 72 189 3.0 8.0 0.00 0.00 0.00 42 1011.1
20260504185401 72 223 3.0 10.0 0.00 0.00 0.00 41 1011.2
20260504185141 71 221 2.0 13.0 0.00 0.00 0.00 42 1011.3
20260504184402 72 190 2.0 13.0 0.00 0.00 0.00 43 1011.4
20260504183901 72 206 3.0 9.0 0.00 0.00 0.00 41 1011.5
20260504183401 72 213 2.0 10.0 0.00 0.00 0.00 43 1011.5
20260504182901 72 233 2.0 10.0 0.00 0.00 0.00 42 1011.5
20260504182401 71 236 3.0 14.0 0.00 0.00 0.00 42 1011.6
20260504182140 71 176 4.0 14.0 0.00 0.00 0.00 42 1011.8
20260504181401 71 207 5.0 13.0 0.00 0.00 0.00 41 1011.9
20260504180901 71 197 2.0 9.0 0.00 0.00 0.00 43 1012.0
20260504180401 70 190 1.0 16.0 0.00 0.00 0.00 45 1011.9
20260504175901 70 218 5.0 16.0 0.00 0.00 0.00 41 1012.1
20260504175401 70 128 3.0 10.0 0.00 0.00 0.00 43 1012.1
20260504174900 70 180 2.0 10.0 0.00 0.00 0.00 45 1012.1
20260504174402 70 246 5.0 10.0 0.00 0.00 0.00 43 1012.1
20260504173901 70 203 1.0 7.0 0.00 0.00 0.00 42 1012.2
20260504173402 70 237 2.0 8.0 0.00 0.00 0.00 47 1012.2
20260504172902 69 250 1.0 8.0 0.00 0.00 0.00 43 1012.2
20260504172400 69 225 2.0 6.0 0.00 0.00 0.00 44 1012.3
20260504171900 69 184 2.0 10.0 0.00 0.00 0.00 44 1012.3
20260504171401 69 205 7.0 10.0 0.00 0.00 0.00 41 1012.5
20260504170902 69 217 3.0 6.0 0.00 0.00 0.00 41 1012.4
20260504170402 69 202 2.0 7.0 0.00 0.00 0.00 43 1012.4
20260504170144 69 194 3.0 7.0 0.00 0.00 0.00 43 1012.5
20260504150900 64 236 2.0 11.0 0.00 0.00 0.00 44 1013.7
20260504150400 64 234 2.0 11.0 0.00 0.00 0.00 49 1013.8
20260504140851 61 240 1.0 5.0 0.00 0.00 0.00 51 1013.7
20260504140351 61 241 2.0 3.0 0.00 0.00 0.00 53 1013.8
20260504130354 55 229 1.0 5.0 0.00 0.00 0.00 62 1014.3
20260504110331 42 258 0.0 0.0 0.00 0.00 0.00 85 1014.7
20260504100331 43 258 0.0 0.0 0.00 0.00 0.00 83 1014.6
20260504081829 42 258 0.0 0.0 0.00 0.00 0.00 82 1015.0
20260504081329 42 258 0.0 0.0 0.00 0.00 0.00 82 1015.0
20260504080828 42 258 0.0 0.0 0.00 0.00 0.00 83 1015.0
20260504080328 42 258 0.0 0.0 0.00 0.00 0.00 83 1015.0
20260504080110 42 258 0.0 0.0 0.00 0.00 0.00 84 1015.0
20260504060127 39 258 0.0 0.0 0.00 0.00 0.00 83 1015.3
20260504050329 38 258 0.0 0.0 0.00 0.00 0.00 83 1015.7
20260504045829 38 258 0.0 0.0 0.00 0.00 0.00 83 1015.7
20260504045614 38 258 0.0 0.0 0.00 0.00 0.00 83 1015.7
20260504044829 38 258 0.0 0.0 0.00 0.00 0.00 82 1015.7
20260504044329 38 258 0.0 0.0 0.00 0.00 0.00 82 1015.7
20260504043829 38 258 0.0 0.0 0.00 0.00 0.00 82 1015.6
20260504043329 38 258 0.0 0.0 0.00 0.00 0.00 82 1015.6
20260504042829 39 258 0.0 0.0 0.00 0.00 0.00 82 1015.6
20260504042329 39 258 0.0 0.0 0.00 0.00 0.00 82 1015.6
20260504041828 39 258 0.0 0.0 0.00 0.00 0.00 82 1015.6
20260504041329 39 258 0.0 0.0 0.00 0.00 0.00 82 1015.6
20260504040831 39 258 0.0 0.0 0.00 0.00 0.00 82 1015.6
20260504040329 39 258 0.0 0.0 0.00 0.00 0.00 82 1015.6
20260504040115 39 258 0.0 0.0 0.00 0.00 0.00 82 1015.6
20260504035329 40 258 0.0 0.0 0.00 0.00 0.00 82 1015.6
20260504034830 40 258 0.0 0.0 0.00 0.00 0.00 82 1015.6
20260504034329 40 258 0.0 0.0 0.00 0.00 0.00 82 1015.6
20260504033838 40 258 0.0 0.0 0.00 0.00 0.00 81 1015.4
20260504033329 40 258 0.0 0.0 0.00 0.00 0.00 80 1015.6
20260504032829 40 258 0.0 0.0 0.00 0.00 0.00 80 1015.3
20260504032329 40 258 0.0 0.0 0.00 0.00 0.00 80 1015.3
20260504032108 41 258 0.0 0.0 0.00 0.00 0.00 80 1015.2
20260504031328 41 258 0.0 0.0 0.00 0.00 0.00 79 1015.1
20260504031121 41 258 0.0 0.0 0.00 0.00 0.00 78 1015.1
20260504030333 41 258 0.0 0.0 0.00 0.00 0.00 78 1015.0
20260504030115 41 258 0.0 0.0 0.00 0.00 0.00 78 1015.0
20260504025331 42 258 0.0 0.0 0.00 0.00 0.00 77 1015.0
20260504024832 42 258 0.0 0.0 0.00 0.00 0.00 77 1015.0
20260504024332 42 258 0.0 0.0 0.00 0.00 0.00 77 1015.0
20260504023834 42 258 0.0 0.0 0.00 0.00 0.00 77 1015.1
20260504023332 42 258 0.0 0.0 0.00 0.00 0.00 78 1015.1
20260504022829 42 258 0.0 0.0 0.00 0.00 0.00 77 1015.0
20260504022330 43 258 0.0 0.0 0.00 0.00 0.00 76 1015.0
20260504021829 43 258 0.0 0.0 0.00 0.00 0.00 76 1015.0
20260504021329 43 258 0.0 0.0 0.00 0.00 0.00 75 1015.0
20260504020829 44 258 0.0 0.0 0.00 0.00 0.00 75 1014.9
20260504020330 44 258 0.0 0.0 0.00 0.00 0.00 74 1014.9
20260504015830 44 258 0.0 0.0 0.00 0.00 0.00 73 1014.8
20260504015330 44 258 0.0 0.0 0.00 0.00 0.00 72 1014.8
20260504014830 45 258 0.0 0.0 0.00 0.00 0.00 71 1014.7
20260504014329 45 258 0.0 0.0 0.00 0.00 0.00 72 1014.7
20260504013829 45 258 0.0 0.0 0.00 0.00 0.00 71 1014.7
20260504013329 46 258 0.0 0.0 0.00 0.00 0.00 69 1014.8
20260504013117 46 258 0.0 0.0 0.00 0.00 0.00 69 1014.8
20260504012329 46 258 0.0 0.0 0.00 0.00 0.00 68 1014.7
20260504011829 47 258 0.0 0.0 0.00 0.00 0.00 68 1014.6
20260504011329 47 258 0.0 0.0 0.00 0.00 0.00 67 1014.6
20260504010829 48 258 0.0 0.0 0.00 0.00 0.00 66 1014.5
20260504010328 48 258 0.0 0.0 0.00 0.00 0.00 65 1014.5
20260504005829 49 258 0.0 0.0 0.00 0.00 0.00 63 1014.4
20260504005328 49 258 0.0 0.0 0.00 0.00 0.00 62 1014.5
20260504004828 50 258 0.0 0.0 0.00 0.00 0.00 61 1014.5
20260504004332 50 258 0.0 0.0 0.00 0.00 0.00 59 1014.4
20260504003822 51 258 0.0 0.0 0.00 0.00 0.00 57 1014.3
20260504003321 52 258 0.0 0.0 0.00 0.00 0.00 56 1014.2
20260504002820 52 258 0.0 0.0 0.00 0.00 0.00 55 1014.3
20260504002317 53 258 0.0 0.0 0.00 0.00 0.00 53 1014.2
20260504001816 54 258 0.0 0.0 0.00 0.00 0.00 52 1014.2
20260504001316 54 258 0.0 0.0 0.00 0.00 0.00 51 1014.2
20260504000818 55 258 0.0 0.0 0.00 0.00 0.00 49 1014.1
20260504000308 56 258 0.0 0.0 0.00 0.00 0.00 46 1014.1
20260503235803 57 258 0.0 0.0 0.00 0.00 0.00 46 1014.0
20260503235304 57 258 0.0 0.0 0.00 0.00 0.00 42 1013.9
20260503234803 58 258 0.0 0.0 0.00 0.00 0.00 42 1013.9
20260503234302 58 258 0.0 0.0 0.00 0.00 0.00 38 1013.9
20260503233803 58 258 0.0 0.0 0.00 0.00 0.00 38 1013.9
20260503233303 59 258 0.0 2.0 0.00 0.00 0.00 38 1013.9
20260503232802 59 258 0.0 2.0 0.00 0.00 0.00 38 1013.9
20260503232305 59 258 1.0 2.0 0.00 0.00 0.00 36 1013.8
20260503231802 59 258 1.0 2.0 0.00 0.00 0.00 36 1013.8
20260503231305 59 258 0.0 2.0 0.00 0.00 0.00 36 1013.6
20260503231047 60 258 0.0 2.0 0.00 0.00 0.00 36 1013.6
20260503230302 60 258 0.0 2.0 0.00 0.00 0.00 36 1013.6
20260503225802 60 258 1.0 4.0 0.00 0.00 0.00 36 1013.6
20260503225304 60 258 0.0 4.0 0.00 0.00 0.00 36 1013.6
20260503225048 60 221 0.0 3.0 0.00 0.00 0.00 36 1013.6
20260503224303 60 278 1.0 2.0 0.00 0.00 0.00 36 1013.7
20260503223802 60 278 1.0 4.0 0.00 0.00 0.00 36 1013.7
20260503223303 60 277 1.0 4.0 0.00 0.00 0.00 35 1013.7
20260503222802 60 296 1.0 3.0 0.00 0.00 0.00 37 1013.7
20260503222304 60 286 1.0 11.0 0.00 0.00 0.00 37 1013.7
20260503221803 60 286 2.0 11.0 0.00 0.00 0.00 35 1013.7
20260503221303 60 292 1.0 11.0 0.00 0.00 0.00 36 1013.7
20260503220804 60 80 2.0 6.0 0.00 0.00 0.00 34 1013.6
20260503220303 60 195 1.0 4.0 0.00 0.00 0.00 35 1013.7
20260503215803 60 196 2.0 10.0 0.00 0.00 0.00 35 1013.8
20260503215304 61 196 2.0 10.0 0.00 0.00 0.00 34 1013.8
20260503214804 61 187 3.0 7.0 0.00 0.00 0.00 35 1013.8
20260503214302 61 243 2.0 4.0 0.00 0.00 0.00 35 1013.8
20260503214047 61 246 1.0 4.0 0.00 0.00 0.00 35 1013.8
20260503213303 61 221 2.0 6.0 0.00 0.00 0.00 35 1013.9
20260503212802 61 166 4.0 8.0 0.00 0.00 0.00 34 1013.9
20260503212305 62 180 1.0 8.0 0.00 0.00 0.00 33 1013.8
20260503211803 61 281 1.0 4.0 0.00 0.00 0.00 36 1013.7
20260503211302 61 352 1.0 4.0 0.00 0.00 0.00 35 1013.7
20260503210802 61 343 0.0 6.0 0.00 0.00 0.00 33 1013.7
20260503210302 61 236 3.0 6.0 0.00 0.00 0.00 37 1013.8
20260503205802 61 170 1.0 5.0 0.00 0.00 0.00 34 1013.8
20260503205304 61 171 2.0 5.0 0.00 0.00 0.00 35 1013.9
20260503204802 61 293 2.0 8.0 0.00 0.00 0.00 34 1014.0
20260503204302 61 242 2.0 8.0 0.00 0.00 0.00 34 1014.1
20260503203801 61 117 1.0 3.0 0.00 0.00 0.00 35 1013.8
20260503203302 61 63 1.0 6.0 0.00 0.00 0.00 35 1013.9
20260503203044 61 290 3.0 6.0 0.00 0.00 0.00 34 1013.9
20260503202304 60 243 2.0 11.0 0.00 0.00 0.00 36 1014.0
20260503201801 60 190 3.0 11.0 0.00 0.00 0.00 34 1014.0
20260503201301 61 222 4.0 7.0 0.00 0.00 0.00 36 1014.0
20260503200801 61 167 2.0 8.0 0.00 0.00 0.00 35 1014.2
20260503200301 60 277 2.0 8.0 0.00 0.00 0.00 36 1014.4
20260503195800 60 240 2.0 7.0 0.00 0.00 0.00 40 1014.2
20260503195304 60 279 2.0 6.0 0.00 0.00 0.00 36 1014.4
20260503194758 60 317 1.0 10.0 0.00 0.00 0.00 40 1014.5
20260503194255 59 198 3.0 10.0 0.00 0.00 0.00 38 1014.7
20260503193754 60 232 5.0 10.0 0.00 0.00 0.00 36 1014.6
20260503193250 59 71 2.0 7.0 0.00 0.00 0.00 38 1014.8
20260503192750 59 189 2.0 11.0 0.00 0.00 0.00 38 1014.9
20260503192253 59 292 3.0 11.0 0.00 0.00 0.00 37 1015.0